Date,TemperatureHighF,TemperatureAvgF,TemperatureLowF,DewpointHighF,DewpointAvgF,DewpointLowF,HumidityHigh,HumidityAvg,HumidityLow,PressureMaxIn,PressureMinIn,WindSpeedMaxMPH,WindSpeedAvgMPH,GustSpeedMaxMPH,PrecipitationSumIn
2013-1-1,76,73,70,63,60,56,72,63,57,30.21,30.07,21,8,21,0.00
2013-1-2,77,71,65,67,63,58,83,76,65,30.11,30.00,14,4,14,0.00
2013-1-3,77,73,68,68,66,63,87,79,69,30.15,30.04,14,5,15,0.00
2013-1-4,78,72,67,70,67,64,91,85,75,30.24,30.11,11,3,12,0.00
2013-1-5,75,70,67,69,66,64,92,88,78,30.26,30.17,11,3,11,0.12
2013-1-6,78,75,69,72,69,66,94,82,77,30.21,30.07,16,6,16,0.01
2013-1-7,76,72,70,70,68,66,91,86,77,30.18,30.08,20,5,20,0.09
2013-1-8,78,76,71,72,70,65,88,82,77,30.22,30.09,23,12,23,0.69
2013-1-9,78,77,75,72,70,68,86,79,75,30.29,30.17,25,14,25,0.02
2013-1-10,77,76,75,69,66,62,79,73,62,30.31,30.20,27,17,27,2.77
2013-1-11,76,75,74,69,67,64,82,76,69,30.27,30.17,24,15,25,0.92
2013-1-12,77,76,74,67,66,63,75,72,65,30.20,30.10,22,12,22,0.00
2013-1-13,77,75,74,68,65,60,79,70,60,30.14,30.08,24,13,24,0.00
2013-1-14,77,75,74,67,64,61,76,70,64,30.19,30.13,20,10,20,0.00
2013-1-15,76,75,74,67,65,62,78,72,66,30.16,30.06,19,11,20,0.01
2013-1-16,78,75,70,68,66,62,82,73,63,30.13,30.03,15,7,15,0.00
2013-1-17,78,71,61,71,65,52,90,81,72,30.11,29.98,24,8,24,0.23
2013-1-18,72,63,52,60,53,44,80,69,57,30.25,30.10,24,8,24,0.00
2013-1-19,74,70,67,67,62,56,93,77,59,30.22,30.11,22,7,22,0.50
2013-1-20,76,71,65,69,65,63,95,84,72,30.16,30.02,18,4,18,0.04
2013-1-21,77,73,67,69,66,63,90,79,72,30.09,29.97,16,6,17,0.04
2013-1-22,73,68,63,63,58,51,91,71,55,30.22,30.01,23,8,23,0.00
2013-1-23,73,68,62,58,54,50,75,62,46,30.30,30.20,18,6,18,0.00
2013-1-24,72,67,62,56,52,43,78,59,42,30.30,30.21,12,5,13,0.00
2013-1-25,74,67,60,60,54,49,76,64,54,30.30,30.18,9,4,10,0.00
2013-1-26,74,69,62,60,56,48,79,63,47,30.27,30.17,12,5,12,0.00
2013-1-27,76,71,65,64,59,55,80,66,51,30.30,30.21,21,7,22,0.00
2013-1-28,76,74,73,68,64,61,80,71,65,30.34,30.24,26,14,26,0.00
2013-1-29,76,74,72,70,67,63,88,77,70,30.25,30.13,20,12,21,0.03
2013-1-30,77,74,73,68,65,62,82,73,68,30.13,29.98,22,11,23,0.00
2013-1-31,74,66,59,69,57,40,90,73,45,30.20,29.96,20,5,20,0.00
2013-2-1,71,63,53,56,48,39,68,59,49,30.30,30.17,16,7,19,0.00
2013-2-2,70,65,57,54,47,35,69,53,42,30.29,30.12,18,6,18,0.00
2013-2-3,70,64,58,55,48,38,79,58,32,30.18,30.08,14,4,14,0.00
2013-2-4,71,63,51,56,47,38,72,56,36,30.17,30.04,13,4,13,0.00
2013-2-5,74,68,59,63,56,49,77,66,50,30.11,30.01,12,5,14,0.00
2013-2-6,76,71,64,65,62,57,88,73,56,30.13,30.03,20,8,20,0.06
2013-2-7,76,74,71,67,64,60,75,71,65,30.10,29.93,19,8,19,0.00
2013-2-8,80,74,69,68,65,57,87,74,45,30.06,29.92,19,6,19,0.00
2013-2-9,77,72,67,69,63,58,89,73,58,30.20,30.04,23,8,24,0.13
2013-2-10,73,72,69,64,61,58,82,69,64,30.29,30.18,28,17,28,1.01
2013-2-11,75,73,72,65,62,59,74,69,63,30.25,30.12,19,11,20,0.00
2013-2-12,78,74,69,69,66,62,84,77,69,30.15,30.00,20,7,21,0.00
2013-2-13,78,75,71,72,69,66,89,82,71,30.05,29.91,19,6,20,0.00
2013-2-14,75,70,64,70,66,60,93,88,81,30.04,29.89,20,5,25,2.05
2013-2-15,73,68,65,65,63,62,92,87,75,30.04,29.94,16,5,16,0.40
2013-2-16,70,64,55,62,54,41,93,71,44,30.10,29.89,27,9,27,0.27
2013-2-17,56,51,45,43,30,18,65,47,28,30.33,30.10,22,8,25,0.00
2013-2-18,69,59,48,58,44,30,68,58,51,30.38,30.22,28,13,28,0.15
2013-2-19,74,71,65,65,59,51,85,67,52,30.22,30.09,26,10,27,0.00
2013-2-20,75,70,64,66,64,58,91,79,64,30.14,30.02,12,5,13,0.00
2013-2-21,77,74,72,68,66,63,80,74,67,30.12,30.00,14,8,14,0.00
2013-2-22,77,76,74,70,68,65,83,79,73,30.12,30.02,22,12,23,0.00
2013-2-23,78,75,71,72,69,67,89,81,73,30.05,29.92,22,9,22,0.39
2013-2-24,83,75,72,73,70,67,93,85,62,30.01,29.90,14,5,15,0.00
2013-2-25,79,76,72,73,70,67,88,84,77,29.94,29.83,17,6,19,0.00
2013-2-26,81,78,76,73,70,68,87,80,68,29.90,29.81,19,7,22,0.00
2013-2-27,77,70,63,72,63,57,93,80,58,29.98,29.87,15,5,15,0.72
2013-2-28,69,64,59,63,52,40,91,66,37,30.04,29.91,14,5,14,0.00
2013-3-1,64,62,59,55,48,43,73,61,51,30.00,29.90,15,6,15,0.01
2013-3-2,64,57,53,48,40,33,68,54,39,30.06,29.97,35,9,35,0.21
2013-3-3,59,53,47,41,39,35,70,59,46,30.17,29.99,25,8,27,0.01
2013-3-4,62,54,45,47,37,26,74,56,31,30.26,30.14,18,6,20,0.00
2013-3-5,70,64,54,57,52,42,74,65,56,30.20,30.09,16,5,16,0.00
2013-3-6,73,64,53,61,50,29,89,63,26,30.11,29.94,30,11,30,0.25
2013-3-7,68,58,49,55,45,35,81,62,45,30.20,30.09,17,5,19,0.00
2013-3-8,70,63,55,53,50,43,82,64,42,30.23,30.12,11,4,12,0.00
2013-3-9,72,66,58,57,53,50,80,64,53,30.21,30.11,17,6,19,0.00
2013-3-10,72,69,68,61,56,51,72,62,55,30.18,30.08,24,14,25,0.36
2013-3-11,74,71,69,63,60,56,72,67,59,30.11,29.96,27,14,27,1.03
2013-3-12,77,74,70,69,64,61,81,73,63,30.03,29.92,24,9,24,0.00
2013-3-13,70,65,57,65,55,46,89,71,47,30.13,29.98,16,6,17,0.00
2013-3-14,66,61,56,53,47,41,78,63,44,30.23,30.10,16,6,18,0.00
2013-3-15,69,62,54,54,50,44,75,64,53,30.27,30.16,11,5,15,0.00
2013-3-16,71,66,58,55,52,48,81,64,46,30.21,30.10,14,5,16,0.00
2013-3-17,72,68,62,61,57,53,77,67,58,30.17,30.04,17,7,17,0.00
2013-3-18,76,72,67,69,64,60,91,76,67,30.08,29.97,20,9,20,0.31
2013-3-19,76,72,70,68,66,62,89,82,69,30.02,29.84,17,4,18,0.00
2013-3-20,78,72,66,72,65,53,93,80,45,30.00,29.82,23,5,25,0.01
2013-3-21,70,66,62,61,53,45,89,66,43,29.96,29.83,18,5,18,0.00
2013-3-22,74,69,61,69,58,50,85,68,57,30.03,29.91,17,7,17,0.02
2013-3-23,79,76,72,73,71,68,89,85,81,30.00,29.80,19,5,20,0.00
2013-3-24,87,79,71,73,70,63,92,76,51,29.90,29.67,29,9,30,0.54
2013-3-25,78,73,65,72,58,34,92,64,27,29.99,29.75,17,6,17,0.00
2013-3-26,65,60,54,43,36,27,60,43,27,30.22,29.99,22,9,22,0.01
2013-3-27,64,56,48,47,41,30,65,56,44,30.27,30.19,17,6,17,0.00
2013-3-28,68,62,52,51,44,33,73,55,29,30.29,30.18,13,5,14,0.00
2013-3-29,72,66,57,54,49,40,69,55,39,30.31,30.21,17,6,17,0.00
2013-3-30,71,69,67,57,51,46,63,54,43,30.28,30.17,17,8,17,0.00
2013-3-31,75,72,63,66,61,53,78,69,58,30.19,30.05,17,10,19,0.00
2013-4-1,84,76,73,71,65,56,85,71,41,30.06,29.94,21,7,23,0.02
2013-4-2,78,72,66,68,65,61,94,78,61,30.09,29.99,16,6,16,0.00
2013-4-3,77,75,74,70,67,65,81,76,72,30.08,30.00,16,10,17,0.00
2013-4-4,79,75,68,72,69,64,91,82,76,30.05,29.90,22,11,23,0.54
2013-4-5,75,69,67,70,65,62,91,85,76,29.99,29.82,33,7,34,0.54
2013-4-6,76,69,60,65,60,56,89,76,59,30.09,29.91,22,7,22,0.01
2013-4-7,74,73,71,64,61,58,73,66,58,30.15,30.04,22,13,24,0.00
2013-4-8,76,74,73,66,61,56,74,63,56,30.16,30.06,16,8,16,0.00
2013-4-9,76,75,74,67,66,63,77,74,68,30.18,30.06,20,13,20,0.00
2013-4-10,78,76,74,72,69,66,83,79,73,30.12,30.00,20,12,20,0.00
2013-4-11,78,77,76,72,70,68,85,81,78,30.03,29.90,22,15,24,0.00
2013-4-12,81,78,77,75,73,71,87,84,79,29.96,29.87,24,9,24,0.00
2013-4-13,82,77,73,74,71,66,91,81,70,29.98,29.88,16,4,16,0.16
2013-4-14,80,78,75,74,73,69,90,84,78,29.99,29.91,16,8,17,0.00
2013-4-15,82,76,70,75,71,66,91,85,73,30.07,29.94,17,5,17,1.32
2013-4-16,82,78,74,75,72,68,90,82,76,30.14,30.04,16,6,16,0.01
2013-4-17,80,77,75,70,67,64,79,71,62,30.13,30.04,16,6,16,0.00
2013-4-18,80,78,76,72,70,65,81,75,69,30.08,29.99,21,11,21,0.00
2013-4-19,81,80,78,74,72,68,84,76,67,30.07,29.97,22,13,24,0.00
2013-4-20,82,78,74,75,72,68,87,82,75,30.09,29.98,19,6,19,0.09
2013-4-21,80,77,73,73,70,67,91,82,71,30.12,30.00,21,7,25,0.02
2013-4-22,79,75,70,71,68,65,89,80,68,30.06,29.95,25,7,25,0.76
2013-4-23,80,76,74,68,65,60,81,67,57,30.09,29.96,18,7,20,0.00
2013-4-24,79,76,74,65,62,58,68,62,57,30.15,30.04,19,9,20,0.00
2013-4-25,79,76,74,64,61,59,69,60,52,30.21,30.09,20,8,20,0.00
2013-4-26,79,76,73,66,63,59,72,65,59,30.24,30.12,17,8,17,0.00
2013-4-27,78,76,74,67,63,60,73,65,56,30.22,30.09,24,12,24,0.00
2013-4-28,77,76,74,66,63,59,71,64,55,30.13,30.00,24,14,24,0.00
2013-4-29,79,77,76,71,67,61,79,70,60,30.05,29.94,19,12,20,0.00
2013-4-30,80,76,67,73,69,64,93,79,68,30.02,29.93,20,6,23,2.26
2013-5-1,80,76,70,72,69,66,91,80,72,30.02,29.93,18,5,18,0.25
2013-5-2,77,74,69,72,69,66,93,85,77,29.97,29.80,35,15,35,13.38
2013-5-3,82,74,67,71,68,64,94,82,59,29.83,29.68,30,8,32,4.57
2013-5-4,84,76,69,69,66,63,93,75,51,29.80,29.69,17,7,20,0.01
2013-5-5,80,74,68,67,61,49,92,68,37,29.94,29.75,17,6,17,0.00
2013-5-6,79,72,63,63,59,50,84,64,50,30.02,29.92,14,5,14,0.00
2013-5-7,81,72,63,66,58,54,75,63,43,30.07,29.98,18,7,18,0.00
2013-5-8,78,73,63,65,61,56,88,68,50,30.16,30.04,10,5,10,0.00
2013-5-9,81,76,69,72,67,60,80,72,61,30.16,30.06,14,6,14,0.00
2013-5-10,80,79,77,72,71,69,81,77,71,30.15,30.07,14,7,14,0.00
2013-5-13,84,80,77,71,66,63,75,65,51,30.10,30.03,16,6,18,0.00
2013-5-14,78,76,74,66,59,54,68,57,47,30.19,30.08,15,7,16,0.00
2013-5-15,78,76,74,65,60,54,69,59,50,30.21,30.10,22,12,22,0.11
2013-5-16,78,76,74,66,61,57,70,60,55,30.13,30.04,20,9,20,0.00
2013-5-17,80,78,75,72,68,61,81,73,61,30.10,30.02,19,10,20,0.01
2013-5-18,81,78,76,73,70,68,83,77,71,30.12,30.04,19,8,19,0.00
2013-5-19,81,79,78,71,69,66,77,71,64,30.12,30.01,17,8,17,0.00
2013-5-20,80,77,70,73,70,66,93,81,74,30.10,29.99,17,8,17,4.20
2013-5-21,79,76,69,72,69,65,94,81,69,30.09,29.94,25,10,25,1.42
2013-5-22,79,77,74,73,70,66,85,80,70,29.99,29.91,19,8,19,0.01
2013-5-23,89,80,74,76,71,62,92,76,43,30.02,29.91,17,6,19,0.00
2013-5-24,85,81,76,76,72,68,88,76,63,30.06,29.95,17,5,20,0.26
2013-5-25,82,80,77,73,67,63,82,66,54,30.18,30.05,18,7,18,0.00
2013-5-26,81,78,76,68,64,57,71,63,52,30.20,30.12,20,10,22,0.00
2013-5-27,81,78,77,72,68,60,80,72,57,30.20,30.08,27,15,28,1.12
2013-5-28,80,78,74,73,71,69,88,79,75,30.13,30.06,29,17,31,0.60
2013-5-29,80,78,73,74,71,67,88,79,71,30.11,30.03,30,18,31,1.51
2013-5-30,80,78,75,73,71,66,88,78,70,30.10,30.01,36,22,36,10.09
2013-5-31,80,78,74,74,72,69,90,82,76,30.09,30.01,32,19,32,1.84
2013-6-1,81,79,76,74,73,71,88,84,77,30.05,29.98,22,9,23,0.01
2013-6-2,84,79,75,76,73,70,89,83,71,30.03,29.93,17,4,19,0.00
2013-6-3,83,79,75,75,72,70,89,82,71,30.05,29.93,13,4,14,0.24
2013-6-4,83,79,75,75,73,71,89,82,75,30.07,29.97,17,4,17,0.18
2013-6-5,82,81,80,76,74,72,85,81,77,30.04,29.91,19,11,19,0.03
2013-6-6,83,80,75,78,74,68,92,84,78,29.94,29.78,35,11,36,1.26
2013-6-7,87,78,74,76,72,71,92,84,64,30.00,29.85,18,4,18,0.66
2013-6-8,82,78,74,77,74,70,93,89,79,30.13,29.99,28,4,28,2.54
2013-6-9,83,81,79,76,74,70,87,79,71,30.14,30.05,20,12,20,0.01
2013-6-10,84,82,80,77,75,73,83,80,75,30.11,30.02,18,10,18,0.00
2013-6-11,86,82,79,77,75,72,87,81,67,30.10,30.02,18,8,19,0.13
2013-6-12,84,81,80,78,75,73,86,82,78,30.10,30.03,12,4,13,0.00
2013-6-13,84,80,77,76,73,69,93,80,67,30.07,29.95,16,5,16,0.00
2013-6-14,90,81,77,76,72,67,90,74,51,29.99,29.89,19,6,19,0.00
2013-6-15,86,81,77,76,73,69,89,78,68,30.07,29.93,13,6,14,0.00
2013-6-16,85,83,80,76,74,71,83,77,70,30.11,30.04,16,7,16,0.00
2013-6-17,86,83,82,76,75,73,80,76,68,30.11,30.03,16,8,16,0.00
2013-6-18,86,83,82,76,74,73,79,75,70,30.09,30.00,16,8,16,0.00
2013-6-19,86,83,79,77,75,72,86,77,69,30.07,30.00,16,6,16,0.00
2013-6-20,86,82,78,76,73,67,79,74,68,30.11,30.03,20,6,22,0.00
2013-6-21,85,83,81,75,73,71,80,72,66,30.14,30.04,19,9,19,0.00
2013-6-22,85,83,81,75,72,70,77,72,63,30.13,30.05,17,10,17,0.00
2013-6-23,85,82,77,75,73,68,81,74,67,30.14,30.06,24,12,25,0.35
2013-6-24,84,83,81,74,72,70,75,72,68,30.18,30.07,20,13,21,0.01
2013-6-25,85,82,80,76,74,70,80,76,68,30.13,30.05,19,11,19,0.00
2013-6-26,85,83,80,76,74,71,84,75,69,30.09,30.01,19,10,19,0.05
2013-6-27,85,82,77,76,73,69,83,77,70,30.07,29.96,14,5,14,0.14
2013-6-28,85,81,74,76,74,69,92,79,68,30.00,29.87,19,5,20,1.64
2013-6-29,85,80,75,76,74,68,90,80,68,29.94,29.82,17,5,17,0.02
2013-6-30,87,80,75,77,74,68,90,80,60,29.96,29.85,22,4,22,0.19
2013-7-1,84,82,78,77,74,68,89,79,65,30.04,29.92,27,8,28,0.05
2013-7-2,84,82,80,77,75,72,83,79,73,30.12,29.98,19,9,20,0.01
2013-7-3,84,81,76,76,74,70,87,80,74,30.14,30.06,28,12,29,0.28
2013-7-4,83,82,78,76,74,71,85,78,74,30.16,30.07,27,13,27,0.16
2013-7-5,83,82,77,76,74,71,84,77,70,30.16,30.06,30,15,32,0.15
2013-7-6,84,82,78,75,73,69,82,75,70,30.13,30.04,23,14,25,0.19
2013-7-7,84,82,80,75,73,71,81,75,69,30.11,30.03,22,13,23,0.20
2013-7-8,85,82,81,74,72,71,78,73,66,30.16,30.08,17,10,17,0.00
2013-7-9,84,81,75,75,72,68,85,73,67,30.15,30.05,16,6,16,0.09
2013-7-10,82,79,73,74,72,68,88,80,72,30.09,30.00,22,8,25,0.45
2013-7-11,85,82,79,76,74,69,83,76,68,30.06,29.95,14,6,15,0.00
2013-7-12,87,80,72,76,73,68,89,79,64,29.98,29.91,25,3,26,0.75
2013-7-13,83,77,73,76,72,70,92,85,75,30.04,29.92,22,3,25,0.75
2013-7-14,84,79,74,74,72,70,92,80,67,30.10,29.99,22,7,22,0.09
2013-7-15,85,80,74,75,72,69,89,77,64,30.10,30.02,24,7,24,0.12
2013-7-16,82,79,73,75,71,67,88,78,70,30.16,30.06,36,15,38,2.75
2013-7-17,81,80,75,73,72,68,86,77,70,30.14,30.05,24,12,25,0.10
2013-7-18,82,78,73,75,72,67,89,82,73,30.14,30.06,23,7,24,0.44
2013-7-19,84,81,75,77,74,70,90,80,72,30.14,30.05,16,8,16,0.09
2013-7-20,84,82,78,77,75,71,84,80,74,30.13,30.04,18,9,19,0.00
2013-7-21,85,81,76,77,75,69,89,81,76,30.17,30.05,14,4,14,0.13
2013-7-22,85,83,80,76,74,71,82,76,70,30.16,30.07,16,8,16,0.00
2013-7-23,86,82,79,77,75,70,85,78,63,30.11,29.98,17,5,17,0.01
2013-7-24,91,84,78,76,72,61,87,68,38,30.02,29.91,17,8,19,0.00
2013-7-25,90,84,78,75,72,69,85,70,53,30.02,29.91,19,8,19,0.00
2013-7-26,89,82,79,76,74,69,84,76,54,30.02,29.94,19,7,19,0.00
2013-7-27,85,80,77,77,74,72,87,81,76,30.01,29.93,16,4,19,0.00
2013-7-28,84,80,75,76,74,69,87,81,73,30.07,29.95,17,4,17,0.47
2013-7-29,86,82,79,77,75,72,87,78,70,30.15,30.02,18,6,19,0.00
2013-7-30,85,84,78,77,76,69,82,77,71,30.17,30.08,15,9,16,0.02
2013-7-31,86,84,83,77,74,72,81,74,68,30.13,30.01,16,10,17,0.00
2013-8-1,85,83,80,75,73,70,78,72,64,30.06,29.95,24,11,24,0.00
2013-8-2,88,80,76,76,72,65,86,77,63,30.06,29.92,17,6,17,0.21
2013-8-3,85,79,73,77,73,67,88,82,70,30.13,30.02,20,4,21,0.58
2013-8-4,87,80,73,77,73,70,92,79,69,30.12,29.98,36,4,37,1.55
2013-8-5,88,80,77,79,74,70,90,81,66,30.05,29.95,18,4,18,0.26
2013-8-6,86,82,77,77,74,71,89,79,71,29.98,29.90,10,4,10,0.00
2013-8-7,85,83,79,77,75,72,81,76,69,29.99,29.90,24,8,24,0.05
2013-8-8,86,84,82,76,74,72,79,74,66,30.02,29.93,19,12,19,0.00
2013-8-9,85,83,80,76,73,70,82,73,66,30.07,29.95,21,11,21,0.01
2013-8-10,85,83,82,76,75,73,80,76,72,30.12,30.03,15,10,16,0.00
2013-8-11,86,84,82,77,75,73,80,75,69,30.14,30.07,16,10,16,0.00
2013-8-12,88,84,82,76,74,71,77,72,65,30.11,30.01,16,8,17,0.00
2013-8-13,86,84,82,76,74,72,79,73,68,30.05,29.95,16,8,16,0.00
2013-8-14,86,84,81,76,74,72,82,73,66,30.03,29.93,16,7,16,0.00
2013-8-15,84,81,76,77,74,71,89,79,69,30.06,29.96,22,6,24,0.10
2013-8-16,83,82,80,76,75,71,81,79,78,30.06,30.04,9,4,11,0.00
2013-11-5,80,79,78,71,69,68,78,73,70,30.09,30.04,33,21,33,2.99
2013-11-6,80,79,77,70,68,65,75,70,63,30.08,30.00,30,12,30,0.02
2013-11-7,83,77,72,73,69,66,89,77,65,30.03,29.93,13,4,13,0.00
2013-11-8,82,77,72,73,69,66,89,78,62,30.05,29.94,26,8,27,0.34
2013-11-9,79,77,75,72,70,68,87,78,74,30.12,30.01,31,15,32,0.37
2013-11-10,82,79,77,71,69,66,78,73,67,30.17,30.05,23,10,23,0.00
2013-11-11,80,78,77,71,67,63,75,69,62,30.22,30.05,21,10,22,0.00
2013-11-12,82,78,75,69,66,63,78,67,57,30.16,29.96,17,5,17,0.00
2013-11-13,76,73,70,67,62,54,86,69,57,30.23,30.00,32,9,32,0.30
2013-11-14,75,73,70,62,58,54,69,61,55,30.31,30.14,31,17,32,0.00
2013-11-15,79,77,74,69,65,59,72,68,62,30.21,30.04,30,18,32,0.00
2013-11-16,80,78,72,72,69,65,83,73,64,30.16,30.02,25,13,26,0.13
2013-11-17,81,79,78,72,70,68,79,73,67,30.10,30.01,26,12,26,0.01
2013-11-18,81,78,74,72,70,69,86,76,71,30.11,29.92,12,4,12,0.00
2013-11-19,81,76,73,73,70,68,88,83,72,30.02,29.86,14,4,14,0.13
2013-11-20,81,76,70,73,70,67,92,83,71,30.10,29.92,17,5,17,0.01
2013-11-21,79,77,72,73,70,68,90,80,73,30.30,30.04,31,14,32,2.62
2013-11-22,79,78,77,71,69,67,79,74,70,30.33,30.07,28,15,28,3.07
2013-11-23,79,78,76,70,68,65,79,73,68,30.10,29.98,20,9,21,0.00
2013-11-24,79,74,70,69,66,63,89,76,64,30.20,29.99,26,8,26,0.37
2013-11-25,75,73,71,68,64,58,80,73,62,30.34,30.05,34,21,35,3.88
2013-11-26,81,78,74,74,71,67,85,81,76,30.07,29.82,34,14,36,0.44
2013-11-27,104,72,45,100,63,-100,100,77,4,32.77,25.56,28,9,28,0.39
2013-11-28,72,72,72,56,56,55,58,58,57,30.30,28.90,10,5,12,0.39
2013-11-30,77,75,67,70,64,61,89,69,61,30.27,30.10,31,11,31,0.76
2013-12-1,99,73,47,83,65,-100,94,78,13,32.77,24.70,21,9,21,0.96
2013-12-2,70,67,64,64,62,59,95,83,69,30.02,29.83,15,5,16,0.00
2013-12-3,76,71,63,65,62,57,92,75,54,30.11,29.90,11,4,12,0.00
2013-12-4,80,75,68,68,65,62,86,72,60,30.21,29.99,13,5,13,0.00
2013-12-5,80,78,75,71,68,64,83,71,65,30.30,30.08,19,9,19,0.08
2013-12-6,80,78,77,70,68,65,78,71,64,30.36,30.09,22,11,22,0.00
2013-12-7,80,75,71,72,68,65,90,79,65,30.36,30.15,24,6,24,0.35
2013-12-8,79,78,75,71,68,65,83,72,66,30.35,30.13,25,12,28,0.01
2013-12-9,80,78,77,70,67,62,77,69,56,30.34,30.11,22,11,22,0.00
2013-12-10,81,78,77,72,70,68,79,75,70,30.31,30.08,17,7,17,0.00
2013-12-11,82,78,72,73,70,65,90,77,61,30.38,30.12,11,5,12,0.00
2013-12-12,78,73,71,70,65,58,92,76,60,30.40,30.14,22,6,24,0.00
2013-12-13,75,73,71,67,62,56,77,68,59,30.29,30.10,30,15,32,0.70
2013-12-14,79,77,74,72,69,66,80,76,73,30.12,30.00,29,13,30,0.15
2013-12-15,81,76,72,73,70,65,88,81,71,30.07,29.93,25,4,26,0.02
2013-12-16,72,67,62,66,60,57,87,77,67,30.23,30.04,13,4,14,0.00
2013-12-17,75,68,60,63,58,55,90,72,56,30.29,30.11,12,4,13,0.00
2013-12-18,72,67,62,60,57,53,86,71,54,30.35,30.14,17,4,17,0.00
2013-12-19,75,73,64,64,59,55,78,62,56,30.30,30.16,22,12,22,0.01
2013-12-20,78,76,75,70,65,59,79,69,58,30.24,30.10,22,13,23,0.08
2013-12-21,79,78,76,72,70,67,80,76,71,30.15,30.06,23,14,24,0.00
2013-12-22,79,78,77,72,71,69,81,78,72,30.17,30.07,25,14,26,0.07
2013-12-23,80,78,74,72,71,68,85,79,75,30.23,30.11,21,10,22,0.00
2013-12-24,80,72,68,71,66,61,92,81,65,30.23,30.10,20,6,21,0.00
2013-12-25,75,73,71,67,64,62,83,74,70,30.18,30.11,25,11,25,0.02
2013-12-26,76,75,73,69,67,65,82,77,73,30.23,30.07,20,10,21,0.00
2013-12-27,78,76,74,70,68,66,83,76,72,30.24,30.09,24,10,24,0.08
2013-12-28,78,76,74,72,69,66,85,77,71,30.18,30.03,30,19,32,0.08
2013-12-29,80,78,74,73,72,69,91,82,73,30.04,29.92,30,9,30,0.07
2013-12-30,75,72,69,71,68,64,93,87,79,30.15,29.98,13,4,13,0.04
2013-12-31,76,73,68,67,64,62,83,72,63,30.27,30.10,24,8,25,0.01
2014-1-1,78,76,73,72,69,62,82,78,67,30.21,30.05,28,14,28,0.72
2014-1-2,84,78,73,72,67,63,85,71,51,30.06,29.87,17,6,19,0.00